Hourly Data Report for June 02, 2021

WRIGLEY A
NORTHWEST TERRITORIES
Current Station Operator: NAVCAN

63°12'35.000" N
123°26'12.000" W
149.70 m
2204005
YWY

Download Data

Hourly Data (June 2021)
Hourly Data Report for June 2, 2021
TIME
LST
Temp Definition
°C
Dew Point Definition
°C
Rel Hum Definition
%
Precip. Amount Definition
mm

Wind Dir Definition
10's deg

Wind Spd Definition
km/h
Visibility Definition
km
Stn Press Definition
kPa
Hmdx Definition


Wind Chill Definition


Weather Definition


00:00 14.2 8.3 67 LegendMM 31 15 LegendMM 98.55     LegendNANA
01:00 12.9 8.1 72 LegendMM 30 13 LegendMM 98.60     LegendNANA
02:00 12.5 8.1 74 LegendMM 32 10 LegendMM 98.62     LegendNANA
03:00 10.7 7.6 81 LegendMM 30 9 LegendMM 98.65     LegendNANA
04:00 9.9 7.5 85 LegendMM 29 6 LegendMM 98.67     LegendNANA
05:00 9.3 7.2 86 LegendMM 36 3 LegendMM 98.69     LegendNANA
06:00 10.7 7.4 80 LegendMM 31 7 LegendMM 98.69     LegendNANA
07:00 11.2 7.6 79 LegendMM 30 10 LegendMM 98.67     LegendNANA
08:00 12.5 8.1 74 LegendMM 31 11 LegendMM 98.66     LegendNANA
09:00 14.1 8.4 68 LegendMM 31 14 LegendMM 98.65     LegendNANA
10:00 16.2 9.1 62 LegendMM 30 14 LegendMM 98.60     LegendNANA
11:00 18.1 9.1 55 LegendMM 30 9 LegendMM 98.53     LegendNANA
12:00 20.7 9.5 48 LegendMM 24 8 LegendMM 98.46     LegendNANA
13:00 22.5 8.6 41 LegendMM 16 9 LegendMM 98.42     LegendNANA
14:00 22.4 9.0 42 LegendMM 15 10 LegendMM 98.37     LegendNANA
15:00 22.4 7.8 39 LegendMM 13 10 LegendMM 98.33     LegendNANA
16:00 23.0 7.8 37 LegendMM 15 13 LegendMM 98.28     LegendNANA
17:00 22.8 4.6 30 LegendMM 14 20 LegendMM 98.24     LegendNANA
18:00 22.5 6.7 36 LegendMM 12 13 LegendMM 98.18     LegendNANA
19:00 21.8 8.8 43 LegendMM 11 14 LegendMM 98.12     LegendNANA
20:00 21.4 9.4 46 LegendMM 12 14 LegendMM 98.10     LegendNANA
21:00 20.5 10.0 51 LegendMM 9 13 LegendMM 98.10     LegendNANA
22:00 19.1 11.1 59 LegendMM 10 13 LegendMM 98.08     LegendNANA
23:00 17.6 11.1 66 LegendMM 11 9 LegendMM 98.06     LegendNANA

Notes on Data Quality.

Legend

  • E = Estimated
  • M = Missing
  • NA = Not Available*
  • [empty] = Indicates an unobserved value
Date modified: